Location: Eppenbrunn
(49.1158°N, 7.5601°E)
Time: 17:43:26
(UTC+00:00)

Cosmos 468 Rocket - Pass Details

Date: 09 April 2020
Orbit: 745 x 779 km, 74.0° (Epoch: 24 May)

Event Time Altitude Azimuth Distance (km) Brightness Sun altitude
Rises 20:33:13 0° 334° (NNW) 3,219 8.4 -20.9°
Reaches altitude 10° 20:35:37 10° 331° (NNW) 2,285 7.5 -21.2°
Maximum altitude 20:40:42 61° 252° (WSW) 847 4.3 -21.8°
Enters shadow 20:42:35 37° 188° (S) 1,152 4.6 -22.1°
